TimeCST,TemperatureF,Dew PointF,Humidity,Sea Level PressureIn,VisibilityMPH,Wind Direction,Wind SpeedMPH,Gust SpeedMPH,PrecipitationIn,Events,Conditions,WindDirDegrees,DateUTC
12:16 AM,-9.4,-13.0,84,30.29,10.0,WNW,3.5,-,N/A,,Clear,300,2012-12-25 06:16:00
12:36 AM,-9.4,-14.8,77,30.30,10.0,Calm,Calm,-,N/A,,Clear,0,2012-12-25 06:36:00
12:56 AM,-9.4,-14.8,77,30.30,10.0,Calm,Calm,-,N/A,,Clear,0,2012-12-25 06:56:00
1:16 AM,-9.4,-14.8,77,30.30,10.0,Calm,Calm,-,N/A,,Clear,0,2012-12-25 07:16:00
1:36 AM,-9.4,-14.8,77,30.30,10.0,Calm,Calm,-,N/A,,Clear,0,2012-12-25 07:36:00
1:56 AM,-9.4,-14.8,77,30.31,10.0,WNW,3.5,-,N/A,,Clear,300,2012-12-25 07:56:00
2:16 AM,-9.4,-14.8,77,30.31,10.0,Calm,Calm,-,N/A,,Clear,0,2012-12-25 08:16:00
2:36 AM,-9.4,-14.8,77,30.31,10.0,WNW,3.5,-,N/A,,Clear,300,2012-12-25 08:36:00
2:56 AM,-9.4,-14.8,77,30.32,10.0,WNW,3.5,-,N/A,,Clear,300,2012-12-25 08:56:00
3:16 AM,-11.2,-14.8,84,30.33,10.0,Calm,Calm,-,N/A,,Clear,0,2012-12-25 09:16:00
3:36 AM,-11.2,-14.8,84,30.33,10.0,WNW,4.6,-,N/A,,Clear,290,2012-12-25 09:36:00
3:56 AM,-11.2,-14.8,84,30.34,10.0,WNW,3.5,-,N/A,,Clear,290,2012-12-25 09:56:00
4:16 AM,-11.2,-14.8,84,30.34,10.0,Calm,Calm,-,N/A,,Clear,0,2012-12-25 10:16:00
4:36 AM,-11.2,-14.8,84,30.35,10.0,WNW,3.5,-,N/A,,Clear,290,2012-12-25 10:36:00
4:56 AM,-11.2,-14.8,84,30.36,10.0,Calm,Calm,-,N/A,,Clear,0,2012-12-25 10:56:00
5:16 AM,-11.2,-14.8,84,30.36,10.0,Calm,Calm,-,N/A,,Clear,0,2012-12-25 11:16:00
5:36 AM,-11.2,-14.8,84,30.36,10.0,Calm,Calm,-,N/A,,Clear,0,2012-12-25 11:36:00
5:56 AM,-11.2,-14.8,84,30.37,10.0,Calm,Calm,-,N/A,,Scattered Clouds,0,2012-12-25 11:56:00
6:16 AM,-11.2,-14.8,84,30.38,10.0,WNW,3.5,-,N/A,,Mostly Cloudy,300,2012-12-25 12:16:00
6:36 AM,-11.2,-14.8,84,30.38,10.0,NW,3.5,-,N/A,,Scattered Clouds,310,2012-12-25 12:36:00
6:56 AM,-11.2,-14.8,84,30.39,10.0,WNW,5.8,-,N/A,,Clear,300,2012-12-25 12:56:00
7:16 AM,-11.2,-14.8,84,30.39,10.0,Calm,Calm,-,N/A,,Scattered Clouds,0,2012-12-25 13:16:00
7:36 AM,-11.2,-14.8,84,30.40,10.0,Calm,Calm,-,N/A,,Scattered Clouds,0,2012-12-25 13:36:00
7:56 AM,-11.2,-14.8,84,30.40,10.0,Calm,Calm,-,N/A,,Clear,0,2012-12-25 13:56:00
8:16 AM,-11.2,-16.6,77,30.40,10.0,Calm,Calm,-,N/A,,Clear,0,2012-12-25 14:16:00
8:36 AM,-11.2,-16.6,77,30.41,10.0,Calm,Calm,-,N/A,,Clear,0,2012-12-25 14:36:00
8:56 AM,-11.2,-14.8,84,30.41,10.0,WNW,3.5,-,N/A,,Clear,290,2012-12-25 14:56:00
9:16 AM,-9.4,-14.8,77,30.41,10.0,NW,3.5,-,N/A,,Clear,310,2012-12-25 15:16:00
9:36 AM,-7.6,-11.2,84,30.42,10.0,NW,3.5,-,N/A,,Clear,310,2012-12-25 15:36:00
9:56 AM,-7.6,-11.2,84,30.43,10.0,West,4.6,-,N/A,,Clear,280,2012-12-25 15:56:00
10:16 AM,-5.8,-11.2,77,30.43,10.0,Calm,Calm,-,N/A,,Clear,0,2012-12-25 16:16:00
10:36 AM,-4.0,-9.4,78,30.42,10.0,NNW,3.5,-,N/A,,Clear,340,2012-12-25 16:36:00
10:56 AM,-2.2,-9.4,71,30.42,10.0,Calm,Calm,-,N/A,,Clear,0,2012-12-25 16:56:00
11:16 AM,-2.2,-9.4,71,30.41,10.0,West,3.5,-,N/A,,Clear,270,2012-12-25 17:16:00
11:36 AM,-0.4,-7.6,72,30.41,10.0,Calm,Calm,-,N/A,,Clear,0,2012-12-25 17:36:00
11:56 AM,-0.4,-7.6,72,30.41,10.0,West,3.5,-,N/A,,Clear,270,2012-12-25 17:56:00
12:16 PM,1.4,-5.8,72,30.40,10.0,West,3.5,-,N/A,,Clear,270,2012-12-25 18:16:00
12:36 PM,1.4,-5.8,72,30.39,10.0,West,5.8,-,N/A,,Clear,270,2012-12-25 18:36:00
12:56 PM,1.4,-5.8,72,30.39,10.0,WNW,5.8,-,N/A,,Clear,300,2012-12-25 18:56:00
1:16 PM,1.4,-5.8,72,30.40,10.0,WNW,5.8,-,N/A,,Clear,290,2012-12-25 19:16:00
1:36 PM,1.4,-5.8,72,30.39,10.0,West,3.5,-,N/A,,Clear,280,2012-12-25 19:36:00
1:56 PM,3.2,-4.0,72,30.38,10.0,NNW,3.5,-,N/A,,Clear,340,2012-12-25 19:56:00
2:16 PM,3.2,-4.0,72,30.38,10.0,Calm,Calm,-,N/A,,Clear,0,2012-12-25 20:16:00
2:36 PM,3.2,-2.2,78,30.39,10.0,Calm,Calm,-,N/A,,Clear,0,2012-12-25 20:36:00
2:56 PM,3.2,-2.2,78,30.39,10.0,Calm,Calm,-,N/A,,Clear,0,2012-12-25 20:56:00
3:16 PM,5.0,-2.2,72,30.39,10.0,Calm,Calm,-,N/A,,Clear,0,2012-12-25 21:16:00
3:36 PM,5.0,-2.2,72,30.39,10.0,Calm,Calm,-,N/A,,Clear,0,2012-12-25 21:36:00
3:56 PM,5.0,-2.2,72,30.38,10.0,Calm,Calm,-,N/A,,Clear,0,2012-12-25 21:56:00
4:16 PM,3.2,-2.2,78,30.38,10.0,Calm,Calm,-,N/A,,Clear,0,2012-12-25 22:16:00
4:57 PM,-2.2,-5.8,85,30.37,10.0,Calm,Calm,-,N/A,,Clear,0,2012-12-25 22:57:00
5:16 PM,-2.2,-7.6,78,30.37,10.0,Calm,Calm,-,N/A,,Clear,0,2012-12-25 23:16:00
5:36 PM,-5.8,-9.4,84,30.37,10.0,Calm,Calm,-,N/A,,Clear,0,2012-12-25 23:36:00
5:56 PM,-5.8,-9.4,84,30.37,10.0,Calm,Calm,-,N/A,,Clear,0,2012-12-25 23:56:00
6:16 PM,-7.6,-11.2,84,30.38,10.0,Calm,Calm,-,N/A,,Clear,0,2012-12-26 00:16:00
6:36 PM,-7.6,-11.2,84,30.38,10.0,Calm,Calm,-,N/A,,Clear,0,2012-12-26 00:36:00
6:56 PM,-7.6,-11.2,84,30.39,10.0,Calm,Calm,-,N/A,,Clear,0,2012-12-26 00:56:00
7:16 PM,-9.4,-13.0,84,30.41,10.0,Calm,Calm,-,N/A,,Clear,0,2012-12-26 01:16:00
7:36 PM,-9.4,-13.0,84,30.42,10.0,Calm,Calm,-,N/A,,Clear,0,2012-12-26 01:36:00
7:56 PM,-9.4,-13.0,84,30.42,10.0,Calm,Calm,-,N/A,,Clear,0,2012-12-26 01:56:00
8:16 PM,-9.4,-13.0,84,30.42,10.0,Calm,Calm,-,N/A,,Clear,0,2012-12-26 02:16:00
8:36 PM,-7.6,-11.2,84,30.41,10.0,Calm,Calm,-,N/A,,Clear,0,2012-12-26 02:36:00
8:56 PM,-7.6,-11.2,84,30.40,10.0,Calm,Calm,-,N/A,,Clear,0,2012-12-26 02:56:00
9:16 PM,-7.6,-11.2,84,30.39,10.0,Calm,Calm,-,N/A,,Clear,0,2012-12-26 03:16:00
9:36 PM,-5.8,-9.4,84,30.39,10.0,Calm,Calm,-,N/A,,Clear,0,2012-12-26 03:36:00
9:56 PM,-7.6,-11.2,84,30.38,10.0,Calm,Calm,-,N/A,,Clear,0,2012-12-26 03:56:00
10:16 PM,-7.6,-11.2,84,30.37,10.0,Calm,Calm,-,N/A,,Clear,0,2012-12-26 04:16:00
10:36 PM,-7.6,-11.2,84,30.37,10.0,Calm,Calm,-,N/A,,Clear,0,2012-12-26 04:36:00
10:56 PM,-5.8,-9.4,84,30.36,10.0,Calm,Calm,-,N/A,,Clear,0,2012-12-26 04:56:00
11:16 PM,-5.8,-9.4,84,30.36,10.0,Calm,Calm,-,N/A,,Clear,0,2012-12-26 05:16:00
11:36 PM,-5.8,-9.4,84,30.36,10.0,Calm,Calm,-,N/A,,Clear,0,2012-12-26 05:36:00
11:56 PM,-5.8,-9.4,84,30.36,10.0,Calm,Calm,-,N/A,,Clear,0,2012-12-26 05:56:00